Location: Gellin
(53.4498°N, 14.3207°E)
Time: 23:24:47
(UTC+00:00)

Meteor 2-20 - Pass Details

Date: 03 March 2021
Orbit: 940 x 958 km, 82.5° (Epoch: 12 April)

Event Time Altitude Azimuth Distance (km) Brightness Sun altitude
Rises 18:42:16 0° 349° (N) 3,623 7.8 -18.2°
Reaches altitude 10° 18:44:49 10° 354° (N) 2,677 7.0 -18.6°
Maximum altitude 18:50:51 59° 74° (ENE) 1,093 4.5 -19.4°
Enters shadow 18:54:07 28° 143° (SE) 1,718 5.3 -19.9°
